TimeMDT,TemperatureF,Dew PointF,Humidity,Sea Level PressureIn,VisibilityMPH,Wind Direction,Wind SpeedMPH,Gust SpeedMPH,PrecipitationIn,Events,Conditions,WindDirDegrees,DateUTC
1:56 AM,30.0,26.1,85,30.14,10.0,East,4.6,-,N/A,,Clear,90,2012-11-03 07:56:00
2:56 AM,29.1,24.1,81,30.13,10.0,Calm,Calm,-,N/A,,Clear,0,2012-11-03 08:56:00
3:56 AM,28.0,25.2,89,30.14,10.0,Calm,Calm,-,N/A,,Clear,0,2012-11-03 09:56:00
4:56 AM,27.1,24.1,88,30.15,10.0,NE,4.6,-,N/A,,Clear,50,2012-11-03 10:56:00
5:56 AM,29.1,22.1,75,30.17,10.0,Calm,Calm,-,N/A,,Clear,0,2012-11-03 11:56:00
6:56 AM,26.1,21.0,81,30.21,10.0,Calm,Calm,-,N/A,,Clear,0,2012-11-03 12:56:00
7:56 AM,28.0,22.1,78,30.23,10.0,SSE,3.5,-,N/A,,Clear,150,2012-11-03 13:56:00
9:56 AM,38.8,29.1,68,30.22,10.0,Calm,Calm,-,N/A,,Clear,0,2012-11-03 15:56:00
10:56 AM,45.0,29.1,54,30.21,10.0,SSE,4.6,-,N/A,,Clear,160,2012-11-03 16:56:00
11:56 AM,47.8,27.1,45,30.21,10.0,South,6.9,-,N/A,,Clear,190,2012-11-03 17:56:00
12:56 PM,50.9,26.1,38,30.19,10.0,South,8.1,-,N/A,,Mostly Cloudy,180,2012-11-03 18:56:00
1:56 PM,50.0,25.2,38,30.17,10.0,Variable,5.8,-,N/A,,Clear,0,2012-11-03 19:56:00
2:56 PM,52.9,25.2,34,30.16,10.0,SSW,3.5,-,N/A,,Clear,210,2012-11-03 20:56:00
3:56 PM,52.9,26.1,35,30.15,10.0,South,10.4,-,N/A,,Clear,190,2012-11-03 21:56:00
4:56 PM,50.9,25.2,37,30.19,10.0,SSW,3.5,-,N/A,,Mostly Cloudy,200,2012-11-03 22:56:00
5:56 PM,48.9,26.1,41,30.19,10.0,South,4.6,-,N/A,,Partly Cloudy,190,2012-11-03 23:56:00
6:56 PM,41.0,28.0,60,30.25,10.0,ESE,6.9,-,N/A,,Partly Cloudy,110,2012-11-04 00:56:00
7:56 PM,36.0,28.0,73,30.27,10.0,ENE,8.1,-,N/A,,Clear,70,2012-11-04 01:56:00
8:56 PM,34.9,27.1,73,30.27,10.0,ESE,5.8,-,N/A,,Clear,110,2012-11-04 02:56:00
9:56 PM,34.0,27.1,76,30.24,10.0,Calm,Calm,-,N/A,,Clear,0,2012-11-04 03:56:00
10:56 PM,31.1,27.1,85,30.23,10.0,Calm,Calm,-,N/A,,Clear,0,2012-11-04 04:56:00
11:56 PM,32.9,26.1,76,30.22,10.0,Calm,Calm,-,N/A,,Partly Cloudy,0,2012-11-04 05:56:00